NSZ3730 EKCH-EKYT

Flight info

Callsign NSZ3730
Flight time 0h 28m
Altitude 18000
Route GOLGA DCT AAL
Aircraft B738/M-SDE2E3FGHIRWXY/LB1

Departure

Time 2026-05-08 13:16
Airport Copenhagen Kastrup Airport (EKCH)

Arrival

Time 2026-05-08 13:44
Airport Aalborg Airport (EKYT)
Time Latitude Longitude Altitude Speed Heading
2026-05-08 12:47 55.62782 12.64169 21 ft 0 kts 136°
2026-05-08 13:05 55.62786 12.64163 21 ft 2 kts 135°
2026-05-08 13:06 55.62797 12.64142 21 ft 2 kts 129°
2026-05-08 13:06 55.62807 12.64118 23 ft 2 kts 122°
2026-05-08 13:06 55.62815 12.64093 21 ft 2 kts 114°
2026-05-08 13:06 55.62821 12.64066 23 ft 2 kts 105°
2026-05-08 13:07 55.62824 12.64037 23 ft 2 kts 95°
2026-05-08 13:07 55.62825 12.64008 21 ft 2 kts 86°
2026-05-08 13:07 55.62823 12.63979 21 ft 2 kts 81°
2026-05-08 13:07 55.62820 12.63950 24 ft 2 kts 89°
2026-05-08 13:08 55.62821 12.63937 23 ft 0 kts 120°
2026-05-08 13:10 55.62819 12.63941 26 ft 2 kts 121°
2026-05-08 13:10 55.62785 12.63956 24 ft 8 kts 190°
2026-05-08 13:10 55.62718 12.63893 22 ft 14 kts 212°
2026-05-08 13:11 55.62631 12.63800 25 ft 15 kts 204°
2026-05-08 13:11 55.62594 12.63778 22 ft 0 kts 193°
2026-05-08 13:12 55.62583 12.63774 22 ft 5 kts 190°
2026-05-08 13:12 55.62544 12.63772 21 ft 12 kts 176°
2026-05-08 13:12 55.62450 12.63846 18 ft 19 kts 134°
2026-05-08 13:12 55.62363 12.64057 17 ft 23 kts 124°
2026-05-08 13:13 55.62244 12.64358 16 ft 16 kts 147°
2026-05-08 13:13 55.62198 12.64350 15 ft 10 kts 207°
2026-05-08 13:13 55.62092 12.64255 19 ft 21 kts 205°
2026-05-08 13:13 55.61959 12.64143 23 ft 21 kts 205°
2026-05-08 13:14 55.61831 12.64071 27 ft 18 kts 179°
2026-05-08 13:14 55.61705 12.64083 28 ft 18 kts 177°
2026-05-08 13:14 55.61614 12.64052 26 ft 0 kts 220°
2026-05-08 13:14 55.61604 12.64036 29 ft 4 kts 220°
2026-05-08 13:15 55.61570 12.63986 25 ft 8 kts 220°
2026-05-08 13:15 55.61449 12.63799 22 ft 60 kts 221°
2026-05-08 13:15 55.60881 12.62949 21 ft 151 kts 221°
2026-05-08 13:15 55.59899 12.61489 275 ft 210 kts 219°
2026-05-08 13:16 55.58698 12.59632 1012 ft 246 kts 219°
2026-05-08 13:16 55.57359 12.57509 2032 ft 270 kts 220°
2026-05-08 13:16 55.55955 12.55201 3165 ft 277 kts 221°
2026-05-08 13:16 55.54568 12.52792 4244 ft 280 kts 223°
2026-05-08 13:17 55.53502 12.49965 5418 ft 280 kts 252°
2026-05-08 13:17 55.53448 12.46549 6401 ft 284 kts 287°
2026-05-08 13:17 55.54344 12.43450 7320 ft 285 kts 309°
2026-05-08 13:17 55.55630 12.40765 8240 ft 288 kts 314°
2026-05-08 13:18 55.57014 12.38167 9126 ft 293 kts 315°
2026-05-08 13:18 55.58443 12.35545 10042 ft 298 kts 314°
2026-05-08 13:18 55.59891 12.32884 10626 ft 315 kts 314°
2026-05-08 13:18 55.61474 12.29953 10840 ft 343 kts 314°
2026-05-08 13:19 55.63164 12.26791 11198 ft 363 kts 313°
2026-05-08 13:19 55.64907 12.23506 11989 ft 367 kts 313°
2026-05-08 13:19 55.66653 12.20193 12912 ft 369 kts 313°
2026-05-08 13:19 55.68416 12.16836 13710 ft 374 kts 313°
2026-05-08 13:20 55.70186 12.13452 14580 ft 375 kts 313°
2026-05-08 13:20 55.71968 12.10039 15294 ft 379 kts 313°
2026-05-08 13:20 55.73765 12.06588 16013 ft 382 kts 313°
2026-05-08 13:20 55.75571 12.03112 16272 ft 384 kts 312°
2026-05-08 13:21 55.77417 11.99554 16284 ft 397 kts 312°
2026-05-08 13:21 55.79299 11.95922 16289 ft 401 kts 312°
2026-05-08 13:21 55.81178 11.92292 16282 ft 402 kts 312°
2026-05-08 13:21 55.83065 11.88638 16273 ft 400 kts 312°
2026-05-08 13:22 55.84949 11.84987 16265 ft 399 kts 312°
2026-05-08 13:22 55.86825 11.81344 16261 ft 398 kts 312°
2026-05-08 13:22 55.88694 11.77709 16268 ft 398 kts 312°
2026-05-08 13:22 55.90564 11.74068 16278 ft 399 kts 312°
2026-05-08 13:23 55.92446 11.70396 16272 ft 400 kts 312°
2026-05-08 13:23 55.94306 11.66759 16270 ft 401 kts 311°
2026-05-08 13:23 55.96191 11.63070 16263 ft 402 kts 312°
2026-05-08 13:23 55.98075 11.59378 16263 ft 402 kts 312°
2026-05-08 13:24 55.99957 11.55684 16269 ft 401 kts 312°
2026-05-08 13:24 56.01838 11.51986 16265 ft 401 kts 312°
2026-05-08 13:24 56.03716 11.48287 16264 ft 401 kts 312°
2026-05-08 13:24 56.05571 11.44629 16263 ft 401 kts 312°
2026-05-08 13:25 56.07445 11.40929 16265 ft 400 kts 311°
2026-05-08 13:25 56.09315 11.37228 16266 ft 400 kts 311°
2026-05-08 13:25 56.11184 11.33525 16261 ft 400 kts 311°
2026-05-08 13:25 56.13050 11.29823 16262 ft 400 kts 311°
2026-05-08 13:26 56.14888 11.26168 16257 ft 399 kts 311°
2026-05-08 13:26 56.16749 11.22464 16263 ft 399 kts 311°
2026-05-08 13:26 56.18608 11.18756 16264 ft 399 kts 311°
2026-05-08 13:26 56.20466 11.15047 16262 ft 400 kts 311°
2026-05-08 13:27 56.22323 11.11331 16265 ft 400 kts 311°
2026-05-08 13:27 56.24179 11.07613 16261 ft 400 kts 311°
2026-05-08 13:27 56.26041 11.03877 16265 ft 400 kts 311°
2026-05-08 13:27 56.27900 11.00141 16266 ft 400 kts 311°
2026-05-08 13:28 56.29757 10.96403 16267 ft 401 kts 311°
2026-05-08 13:28 56.31615 10.92658 16267 ft 401 kts 311°
2026-05-08 13:28 56.33474 10.88903 16272 ft 401 kts 311°
2026-05-08 13:28 56.35331 10.85149 16268 ft 402 kts 311°
2026-05-08 13:29 56.37184 10.81396 16259 ft 396 kts 311°
2026-05-08 13:29 56.38957 10.77801 16249 ft 379 kts 311°
2026-05-08 13:29 56.40687 10.74284 16262 ft 373 kts 311°
2026-05-08 13:29 56.42406 10.70782 16254 ft 370 kts 310°
2026-05-08 13:30 56.44114 10.67299 16184 ft 371 kts 310°
2026-05-08 13:30 56.45833 10.63791 15832 ft 370 kts 310°
2026-05-08 13:30 56.47541 10.60300 15384 ft 369 kts 310°
2026-05-08 13:30 56.49239 10.56823 14913 ft 366 kts 310°
2026-05-08 13:31 56.50902 10.53415 14466 ft 364 kts 310°
2026-05-08 13:31 56.52573 10.49982 13980 ft 362 kts 310°
2026-05-08 13:31 56.54217 10.46604 13456 ft 352 kts 310°
2026-05-08 13:31 56.55794 10.43360 13274 ft 332 kts 310°
2026-05-08 13:32 56.57283 10.40292 13254 ft 316 kts 310°
2026-05-08 13:32 56.58712 10.37341 13242 ft 306 kts 310°
2026-05-08 13:32 56.60105 10.34459 13248 ft 304 kts 310°
2026-05-08 13:32 56.61503 10.31563 13266 ft 307 kts 310°
2026-05-08 13:33 56.62923 10.28616 13268 ft 311 kts 310°
2026-05-08 13:33 56.64341 10.25672 13263 ft 308 kts 310°
2026-05-08 13:33 56.65732 10.22780 13260 ft 307 kts 310°
2026-05-08 13:33 56.67139 10.19854 13262 ft 306 kts 309°
2026-05-08 13:34 56.68547 10.16921 13159 ft 309 kts 309°
2026-05-08 13:34 56.69030 10.15914 13031 ft 313 kts 309°
2026-05-08 13:34 56.70273 10.13321 12667 ft 318 kts 310°
2026-05-08 13:34 56.71729 10.10284 12285 ft 318 kts 309°
2026-05-08 13:35 56.73179 10.07255 11882 ft 317 kts 309°
2026-05-08 13:35 56.74625 10.04227 11513 ft 316 kts 309°
2026-05-08 13:35 56.76070 10.01200 11131 ft 315 kts 309°
2026-05-08 13:35 56.77508 9.98180 10746 ft 315 kts 309°
2026-05-08 13:36 56.78925 9.95205 10386 ft 315 kts 309°
2026-05-08 13:36 56.80359 9.92187 10003 ft 314 kts 309°
2026-05-08 13:36 56.81786 9.89184 9595 ft 313 kts 309°
2026-05-08 13:36 56.83208 9.86181 9190 ft 311 kts 309°
2026-05-08 13:37 56.84629 9.83177 8704 ft 315 kts 309°
2026-05-08 13:37 56.86068 9.80140 8166 ft 318 kts 309°
2026-05-08 13:37 56.87524 9.77059 7607 ft 322 kts 309°
2026-05-08 13:37 56.88994 9.73935 7069 ft 325 kts 310°
2026-05-08 13:38 56.90474 9.70783 6485 ft 327 kts 310°
2026-05-08 13:38 56.91960 9.67619 5908 ft 329 kts 310°
2026-05-08 13:38 56.93454 9.64441 5343 ft 329 kts 310°
2026-05-08 13:38 56.94950 9.61255 4761 ft 330 kts 310°
2026-05-08 13:39 56.96448 9.58066 4211 ft 330 kts 311°
2026-05-08 13:39 56.98255 9.55466 3631 ft 333 kts 334°
2026-05-08 13:39 57.00460 9.54291 3324 ft 326 kts 351°
2026-05-08 13:39 57.02633 9.53727 3235 ft 311 kts 353°
2026-05-08 13:40 57.04742 9.53254 2995 ft 303 kts 354°
2026-05-08 13:40 57.06847 9.52817 2495 ft 305 kts 358°
2026-05-08 13:40 57.08906 9.53283 2313 ft 294 kts 23°
2026-05-08 13:40 57.10471 9.55471 2262 ft 278 kts 56°
2026-05-08 13:41 57.11084 9.58661 2241 ft 259 kts 91°
2026-05-08 13:41 57.10740 9.61820 2242 ft 253 kts 111°
2026-05-08 13:41 57.10090 9.64845 2226 ft 254 kts 114°
2026-05-08 13:41 57.09423 9.67807 2237 ft 246 kts 114°
2026-05-08 13:42 57.08831 9.70594 2227 ft 220 kts 107°
2026-05-08 13:42 57.08746 9.73158 2236 ft 190 kts 88°
2026-05-08 13:42 57.08826 9.75570 1723 ft 189 kts 86°
2026-05-08 13:42 57.09024 9.77959 1142 ft 187 kts 83°
2026-05-08 13:43 57.09183 9.80005 694 ft 182 kts 85°
2026-05-08 13:43 57.09320 9.82249 249 ft 172 kts 86°
2026-05-08 13:44 57.09442 9.84327 18 ft 155 kts 85°
2026-05-08 13:44 57.09515 9.85501 18 ft 23 kts 83°
2026-05-08 13:44 57.09464 9.85718 18 ft 15 kts 142°
2026-05-08 13:44 57.09385 9.85829 18 ft 13 kts 143°
2026-05-08 13:45 57.09312 9.85932 18 ft 14 kts 143°
2026-05-08 13:45 57.09228 9.86050 18 ft 16 kts 143°
2026-05-08 13:45 57.09129 9.86189 18 ft 19 kts 142°
2026-05-08 13:45 57.09023 9.86337 18 ft 18 kts 143°
2026-05-08 13:46 57.08926 9.86471 18 ft 16 kts 142°
2026-05-08 13:46 57.08842 9.86594 18 ft 15 kts 141°
2026-05-08 13:46 57.08768 9.86703 18 ft 13 kts 141°
2026-05-08 13:46 57.08701 9.86805 18 ft 12 kts 139°
2026-05-08 13:47 57.08683 9.86904 18 ft 7 kts 70°
2026-05-08 13:47 57.08705 9.86968 19 ft 0 kts 55°